TimeAKST,TemperatureF,Dew PointF,Humidity,Sea Level PressureIn,VisibilityMPH,Wind Direction,Wind SpeedMPH,Gust SpeedMPH,PrecipitationIn,Events,Conditions,WindDirDegrees,DateUTC
12:01 AM,-6.0,-9.9,83,29.84,10.0,East,17.3,-,N/A,,Overcast,80,2013-02-28 09:01:00
1:01 AM,-6.0,-9.9,83,29.84,7.0,East,18.4,-,N/A,,Overcast,80,2013-02-28 10:01:00
2:01 AM,-6.0,-9.0,87,29.85,5.0,East,20.7,-,N/A,,Overcast,80,2013-02-28 11:01:00
3:01 AM,-6.0,-9.9,83,29.84,6.0,East,19.6,-,0.00,Snow,Light Snow,80,2013-02-28 12:01:00
4:01 AM,-5.8,-9.4,84,29.84,2.5,East,19.6,-,0.00,,Overcast,90,2013-02-28 13:01:00
4:08 AM,-5.8,-9.4,84,29.84,2.5,East,17.3,-,0.00,,Overcast,90,2013-02-28 13:08:00
5:01 AM,-6.0,-9.0,87,29.83,2.5,East,13.8,-,0.00,Snow,Light Snow,80,2013-02-28 14:01:00
5:24 AM,-5.8,-9.4,84,29.83,3.0,East,13.8,-,0.00,Snow,Light Snow,90,2013-02-28 14:24:00
5:42 AM,-5.8,-7.6,92,29.84,7.0,East,13.8,-,0.00,Snow,Light Snow,80,2013-02-28 14:42:00
6:01 AM,-5.1,-9.0,83,29.84,8.0,East,13.8,-,0.00,Snow,Light Snow,80,2013-02-28 15:01:00
7:01 AM,-6.0,-9.0,87,29.83,9.0,East,12.7,-,0.00,,Overcast,90,2013-02-28 16:01:00
7:36 AM,-5.8,-9.4,84,29.83,8.0,East,13.8,-,N/A,,Overcast,90,2013-02-28 16:36:00
8:01 AM,-6.0,-9.0,87,29.83,4.0,East,13.8,-,N/A,,Overcast,80,2013-02-28 17:01:00
8:56 AM,-5.8,-9.4,84,29.83,2.0,East,12.7,-,0.00,Snow,Light Snow,80,2013-02-28 17:56:00
9:01 AM,-5.1,-9.0,83,29.83,2.5,East,12.7,-,0.00,Snow,Light Snow,80,2013-02-28 18:01:00
9:08 AM,-5.8,-9.4,84,29.83,4.0,East,13.8,-,0.00,Snow,Light Snow,80,2013-02-28 18:08:00
9:30 AM,-5.8,-9.4,84,29.83,3.0,East,15.0,-,0.00,Snow,Light Snow,80,2013-02-28 18:30:00
10:40 AM,-5.8,-7.6,92,29.83,4.0,ENE,15.0,-,N/A,Snow,Light Snow,70,2013-02-28 19:40:00
11:01 AM,-5.1,-9.0,83,29.82,5.0,ENE,15.0,-,N/A,Snow,Light Snow,70,2013-02-28 20:01:00
11:18 AM,-5.8,-7.6,92,29.82,5.0,East,15.0,-,0.00,,Overcast,80,2013-02-28 20:18:00
11:27 AM,-5.8,-7.6,92,29.82,5.0,East,15.0,-,0.00,,Overcast,80,2013-02-28 20:27:00
11:34 AM,-5.8,-7.6,92,29.82,5.0,East,16.1,-,0.00,,Overcast,80,2013-02-28 20:34:00
11:43 AM,-5.8,-7.6,92,29.82,5.0,East,15.0,-,0.00,,Overcast,80,2013-02-28 20:43:00
12:01 PM,-5.1,-8.0,87,29.82,6.0,East,13.8,-,0.00,,Overcast,80,2013-02-28 21:01:00
1:01 PM,-4.0,-8.0,83,29.83,5.0,East,15.0,-,N/A,,Overcast,90,2013-02-28 22:01:00
2:01 PM,-4.0,-8.0,83,29.82,7.0,East,13.8,-,N/A,,Overcast,90,2013-02-28 23:01:00
2:43 PM,-5.8,-9.4,84,29.82,10.0,East,9.2,-,N/A,,Scattered Clouds,80,2013-02-28 23:43:00
3:01 PM,-5.1,-9.0,83,29.83,9.0,East,10.4,-,N/A,,Clear,80,2013-03-01 00:01:00
4:01 PM,-6.0,-9.9,83,29.82,9.0,ENE,11.5,-,N/A,,Clear,70,2013-03-01 01:01:00
5:01 PM,-8.0,-11.9,83,29.83,10.0,ENE,13.8,-,N/A,,Clear,60,2013-03-01 02:01:00
6:01 PM,-9.0,-13.0,83,29.84,9.0,East,12.7,-,N/A,,Clear,80,2013-03-01 03:01:00
7:01 PM,-9.9,-14.1,82,29.84,10.0,ENE,12.7,-,N/A,,Clear,70,2013-03-01 04:01:00
8:01 PM,-11.0,-15.0,83,29.84,10.0,East,9.2,-,N/A,,Clear,80,2013-03-01 05:01:00
9:01 PM,-11.0,-15.0,83,29.85,10.0,East,6.9,-,N/A,,Clear,100,2013-03-01 06:01:00
10:01 PM,-13.0,-17.0,82,29.87,10.0,East,5.8,-,N/A,,Clear,90,2013-03-01 07:01:00
11:01 PM,-11.9,-16.1,82,29.88,10.0,East,6.9,-,N/A,,Clear,80,2013-03-01 08:01:00
11:33 PM,-13.0,-18.4,77,29.89,10.0,SE,4.6,-,N/A,,Mostly Cloudy,130,2013-03-01 08:33:00